Location: Guayaquil
(2.1667°S, 79.9000°W)
Time: 02:11:06
(UTC-05:00)

ISS - Visible Passes

Search period start: 18 February 2018 00:00
Search period end: 28 February 2018 00:00
Orbit: 403 x 407 km, 51.6° (Epoch: 19 February)

Date Brightness Start Highest point End Pass type
(mag) Time Alt. Az. Time Alt. Az. Time Alt. Az.
19 Feb -1.5 06:04:59 10° S 06:07:53 28° SE 06:10:45 10° ENE visible
19 Feb -0.9 19:16:29 10° WNW 19:18:57 20° SW 19:21:28 10° S visible
20 Feb -0.4 05:14:32 10° SSE 05:15:42 11° SE 05:16:50 10° ESE visible
21 Feb -3.8 05:56:35 10° SW 05:59:50 61° NW 06:03:03 10° NNE visible
22 Feb -2.6 05:05:57 22° S 05:07:39 41° SE 05:10:46 10° NE visible
23 Feb -2.1 05:50:58 14° WNW 05:51:43 15° NW 05:53:43 10° NNW visible
